Weather History for Goshen, IN

Change the Weather History Date:

Saturday, June 15, 2013

  Actual Average Record
Temperature  
Mean Temperature 66 °F -  
Max Temperature 75 °F 80 °F 93 °F (1988)
Min Temperature 57 °F 61 °F 46 °F (1963)
Cooling Degree Days 1    
Growing Degree Days 16 (Base 50)    
Moisture  
Dew Point 59 °F    
Average Humidity 77    
Maximum Humidity 93    
Minimum Humidity 57    
Precipitation  
Precipitation 0.04 in - - ()
Sea Level Pressure  
Sea Level Pressure 30.02 in    
Wind  
Wind Speed 3 mph (South)    
Max Wind Speed 10 mph    
Max Gust Speed -    
Visibility 8 miles    
Events Rain    
Averages and records for this station are not official NWS values.
T = Trace of Precipitation, MM = Missing Value Source: NWS Daily Summary

Daily Weather History Graph

Daily Weather History Graph

Search for Another Location

Airport:

Trip Planner

Search our weather history database for the weather conditions in past years. The results will help you decide how hot, cold, wet, or windy it might be!

Date:

Astronomy

Jun. 15, 2013 Rise Set
Actual Time 6:08 AM EDT 9:18 PM EDT
Civil Twilight 5:34 AM EDT 9:52 PM EDT
Nautical Twilight 4:50 AM EDT 10:36 PM EDT
Astronomical Twilight 3:58 AM EDT 11:28 PM EDT
Moon 12:47 PM EDT (6/15) 12:50 AM EDT (6/15)
Length of Visible Light 16h 18m
Length of Day
15h 10m
Waxing Crescent, 39% of the Moon is Illuminated
Jun 15
Waxing Crescent
Jun 16
First Quarter
Jun 23
Full
Jun 30
Last Quarter
Jul 8
New

Hourly Weather History & Observations

Time (EDT) Temp. Dew Point Humidity Pressure Visibility Wind Dir Wind Speed Gust Speed Precip Events Conditions
12:53 AM 60.1 °F 55.9 °F 86% 30.05 in 9.0 mi Calm Calm - N/A   Clear
1:53 AM 59.0 °F 55.9 °F 90% 30.04 in 9.0 mi Calm Calm - N/A   Clear
2:53 AM 57.9 °F 55.0 °F 90% 30.06 in 7.0 mi Calm Calm - N/A   Clear
3:53 AM 57.9 °F 55.0 °F 90% 30.06 in 5.0 mi Calm Calm - N/A   Clear
4:53 AM 59.0 °F 55.9 °F 90% 30.04 in 5.0 mi Calm Calm - N/A   Clear
5:53 AM 57.9 °F 55.9 °F 93% 30.06 in 5.0 mi Calm Calm - N/A   Mostly Cloudy
6:53 AM 61.0 °F 57.9 °F 90% 30.08 in 5.0 mi Calm Calm - N/A   Overcast
7:53 AM 64.9 °F 60.1 °F 84% 30.09 in 6.0 mi Calm Calm - N/A   Haze
8:53 AM 70.0 °F 59.0 °F 68% 30.07 in 10.0 mi SSW 10.4 mph - N/A   Clear
9:53 AM 72.0 °F 59.0 °F 64% 30.05 in 10.0 mi SSW 10.4 mph - N/A   Scattered Clouds
10:53 AM 73.9 °F 59.0 °F 59% 30.02 in 10.0 mi South 8.1 mph - N/A   Clear
11:53 AM 75.0 °F 59.0 °F 57% 30.01 in 10.0 mi South 9.2 mph - N/A   Clear
12:53 PM 75.0 °F 61.0 °F 62% 30.01 in 10.0 mi SSW 6.9 mph - N/A   Mostly Cloudy
1:53 PM 71.1 °F 62.1 °F 73% 30.04 in 6.0 mi WSW 8.1 mph - 0.01 in Rain Light Rain
2:53 PM 70.0 °F 62.1 °F 76% 30.05 in 10.0 mi WSW 8.1 mph - 0.02 in Rain Light Rain
3:53 PM 70.0 °F 61.0 °F 73% 30.05 in 10.0 mi West 8.1 mph - 0.00 in   Overcast
4:53 PM 70.0 °F 62.1 °F 76% 30.04 in 10.0 mi Calm Calm - N/A   Overcast
5:53 PM 70.0 °F 61.0 °F 73% 30.01 in 10.0 mi SE 5.8 mph - 0.01 in Rain Light Rain
6:53 PM 71.1 °F 61.0 °F 70% 29.96 in 10.0 mi ESE 9.2 mph - 0.00 in   Overcast
7:53 PM 71.1 °F 61.0 °F 70% 29.93 in 10.0 mi SE 8.1 mph - N/A   Clear
8:53 PM 69.1 °F 61.0 °F 75% 29.93 in 10.0 mi SSE 5.8 mph - N/A   Clear
9:53 PM 66.0 °F 60.1 °F 81% 29.94 in 10.0 mi South 4.6 mph - N/A   Clear
10:53 PM 66.9 °F 61.0 °F 81% 29.95 in 10.0 mi South 5.8 mph - N/A   Clear
11:53 PM 66.9 °F 62.1 °F 84% 29.92 in 8.0 mi South 9.2 mph - N/A   Clear